Regional Weather Roundup
Issued by NWS Charleston, SC

Current Version | Previous Version | Graphics & Text | Print | Product List | Glossary On
Versions: 1 2 3 4 5 6 7 8 9 10 11 12 13 14 15 16 17 18 19 20 21 22 23 24 25 26 27 28 29 30 31 32 33 34 35 36 37 38 39 40 41 42 43 44 45 46 47 48 49 50
000 ASUS42 KCHS 222027 RWRCHS REGIONAL WEATHER ROUNDUP NATIONAL WEATHER SERVICE CHARLESTON SC 400 PM EDT SAT JUL 22 2017 NOTE: "FAIR" INDICATES FEW OR NO CLOUDS BELOW 12,000 FEET WITH NO SIGNIFICANT WEATHER AND/OR OBSTRUCTIONS TO VISIBILITY. NOT ALL STATIONS ARE QUALITY CONTROLLED. USE DATA WITH CAUTION... ESPECIALLY DEWPOINT OBSERVATIONS. SCZ027-030-031-034>040-042>050-222100- ...SOUTHEAST SOUTH CAROLINA... CITY SKY/WX TMP DP RH WIND PRES REMARKS N CHARLESTON MOSUNNY 92 75 57 S12 29.95F HX 103 WATERFRONT PRK N/A 87 76 69 S10 29.95F HX 97 JOHNS ISLAND FAIR 88 75 66 S9 29.95F HX 97 PINOPOLIS N/A 91 73 55 SW5 29.88F HX 100 MONCKS CORNER FAIR 91 70 49 S3 29.94F HX 97 SUMMERVILLE FAIR 91 72 52 S5 29.95F HX 98 BEAUFORT MCAS MOSUNNY 93 74 53 SW8 29.95F HX 103 BEAUFORT ARPT FAIR 90 77 66 S9 29.95F HX 102 HILTON HEAD IS SUNNY 88 77 70 SE9 29.98F HX 100 WALTERBORO PTCLDY 91 73 55 SW5 29.96S HX 100 ALLENDALE NOT AVBL ...SOUTHERN MIDLANDS AND PEE DEE... CITY SKY/WX TMP DP RH WIND PRES REMARKS GEORGETOWN FAIR 88 77 70 S13 29.95F HX 100 KINGSTREE FAIR 90 73 58 SW5 29.94F HX 98 ORANGEBURG SUNNY 92 72 51 VRB7 29.95F HX 99 BARNWELL FAIR 95 75 52 VRB6G12 29.95F HX 107 AIKEN FAIR 91 72 52 S3 29.99F HX 98 MANNING FAIR 91 68 46 SW8G17 29.94F HX 95 COLUMBIA MOSUNNY 95 71 45 SW8 29.93F HX 102 SUMTER SUNNY 93 73 51 S8 29.92F HX 101 FLORENCE SUNNY 93 72 50 W9 29.94F HX 101 MYRTLE BEACH MOSUNNY 88 79 74 S16 29.96 HX 102 N MYRTLE BEACH SUNNY 86 78 77 S14 29.95F HX 98 $$ GAZ063-065-086>088-099>101-113>116-118-119-134>141-150-222100- ...SOUTHEAST GEORGIA... CITY SKY/WX TMP DP RH WIND PRES REMARKS SAVANNAH ARPT MOSUNNY 92 70 48 S9 29.96F HX 97 HUNTER AAF MOSUNNY 92 73 52 S8 29.94F HX 101 FORT STEWART MOSUNNY 92 69 46 S3 29.94F HX 97 STATESBORO MOSUNNY 93 71 48 W5 29.95F HX 99 SYLVANIA PTCLDY 92 75 57 W3 29.96F HX 102 CLAXTON FAIR 93 74 54 S5 29.96F HX 103 ...CSRA...CENTRAL AND FAR SOUTHEAST GEORGIA... CITY SKY/WX TMP DP RH WIND PRES REMARKS THOMSON PTSUNNY 91 74 57 W6 30.00F HX 101 AUGUSTA-BUSH MOSUNNY 95 76 53 S7 29.94F HX 108 AUGUSTA-DANIEL MOSUNNY 94 70 45 S10 29.96F HX 100 SWAINSBORO CLOUDY 91 73 55 SW3 29.97F HX 100 VIDALIA PTSUNNY 93 73 52 SW3 29.97F HX 102 EASTMAN FAIR 92 61 35 W3 29.99F HX 92 HAZLEHURST FAIR 92 76 59 SW6 29.96F HX 103 ALMA SUNNY 93 71 48 MISG 29.98F HX 100 WAYCROSS PTSUNNY 96 76 54 SW5 29.98S HX 109 JESUP NOT AVBL BAXLEY FAIR 91 77 62 S3 29.97F HX 105 BRUNSWICK PTSUNNY 91 77 62 S10 29.99S HX 105 SAINT SIMONS SUNNY 90 74 59 SE13G20 29.99F HX 99 $$ SCZ027-028-034-036>038-045-046-048>050-GAZ119-141-222100- ...LAKE AND SUPPLEMENTAL COASTAL OBSERVATIONS... STATION/POSITION TIME TEMP WIND PRES WAVE SWELL AIR SEA DIR/SP/G HT/PER HT/PER/DIR (UTC) (F) (DEG/KT/KT) (MB) (FT/S) (FT/S/D) WINYAH BAY 1945 88 190/ 13 1014.0F LAKE MURRAY NOT AVBL ACE BASIN NERRS 1945 89 160/ 2 1014.0F FORT PULASKI 2000 88 87 160/ 9/ 14 1015.2 SAPELO ISLAND 2000 92 160/ 9 1015.0 $$ ANZ835-935-AMZ111-154-330-350-352-354-370-450-454-472-222100- ...C-MAN AND BUOY OBSERVATIONS... STATION/POSITION TIME TEMP WIND PRES WAVE SWELL AIR SEA DIR/SP/G HT/PER HT/PER/DIR (UTC) (F) (DEG/KT/KT) (MB) (FT/S) (FT/S/D) BUOY 41004 2010 83 85 200/ 8/ 12 1014.6 BUOY 41008 1950 83 84 160/ 12/ 14 1015.6F 2/ 8 2/100/ 8 FOLLY BEACH CMAN 2000 85 190/ 12/ 13 1015.3F CAPERS NEARSHORE 2008 82 84 210/ 12/ 17 1014.4F FRIPP NEARSHORE 2008 83 86 180/ 12/ 16 1014.3F STATION/POSITION TIME TEMP WIND PRES WAVE SWELL AIR SEA DIR/SP/G HT/PER HT/PER/DIR (UTC) (F) (DEG/KT/KT) (MB) (FT/S) (FT/S/D) 5E ST. MARYS GA 2000 85 N/A 2/ 8 FRYING PAN BUOY 2010 84 84 210/ 16/ 17 1014.1 BUOY 41025 1950 83 82 230/ 19/ 23 1013.5F 4/ 8 2/150/ 8 CAPE LOOKOUT NC 2000 84 210/ 13/ 18 1013.7F BUOY 41002 1950 84 84 230/ 14/ 16 1017.6F 4/ 9 3/100/ 9 BUOY 41010 2010 84 85 200/ 10/ 12 1017.5 ST AUGUSTINE FL 2000 74 82 330/ 5/ 6 1018.2R $$

USA.gov is the U.S. government's official web portal to all federal, state and local government web resources and services.